Wind_Speed
11 12 12 11 11 10 11 12 12 11 11 11 11 11 12 12 12 12 13 13 14 14 14 14 14 15 15 15 16 17 17 17 17 17 17 17 17 17 17 18 18 19
12 13 13 13 12 11 11 13 13 12 12 12 11 11 11 12 12 13 13 14 14 15 15 16 16 16 16 17 17 17 18 18 18 18 18 18 18 18 18 18 19 20
13 14 14 13 13 13 14 15 15 14 14 13 12 12 12 12 13 13 14 14 14 15 15 16 16 17 17 17 17 17 18 18 18 18 18 18 18 18 18 18 19 19
13 15 15 15 15 16 16 17 16 16 16 15 14 14 13 13 14 15 15 15 14 15 15 16 17 17 17 17 17 18 18 18 18 19 19 19 19 19 19 19 19 19
13 15 17 17 17 18 19 19 18 18 18 18 17 17 16 15 16 16 16 16 16 15 15 16 17 17 17 17 18 18 18 18 18 18 19 19 19 19 19 19 19 20
13 16 19 19 20 21 22 21 20 20 21 20 20 20 19 18 18 18 18 17 17 17 17 17 17 18 18 18 18 18 19 19 19 19 19 18 19 19 19 19 19 20
14 16 19 21 23 23 24 24 23 23 23 23 22 22 21 21 21 21 21 20 19 18 18 19 19 19 19 19 20 20 20 20 20 20 20 20 19 20 20 20 20 20
14 16 18 21 24 25 26 26 25 25 25 25 25 24 23 23 23 23 23 22 21 20 20 20 21 21 21 22 22 22 21 21 21 21 21 21 21 21 21 22 22 22
16 16 17 20 23 25 27 27 27 27 27 27 26 26 25 24 25 25 25 24 23 22 22 22 22 22 23 23 23 23 23 23 23 23 23 23 23 23 23 23 23 23
19 18 19 20 22 24 26 28 29 29 29 29 28 28 27 27 27 27 27 26 25 24 24 24 24 24 24 24 24 25 25 24 24 24 24 25 25 25 25 25 25 25
22 21 21 22 21 23 26 28 30 30 30 31 30 30 29 29 29 28 28 27 26 27 27 26 26 26 26 26 26 26 26 26 26 26 26 26 27 27 27 28 28 28
26 25 24 23 23 24 26 29 31 32 32 33 32 32 32 31 31 30 29 29 28 29 29 29 29 28 28 28 28 28 28 28 28 28 28 28 28 29 29 30 30 30
30 29 28 27 27 27 28 30 33 34 35 35 34 34 34 33 32 32 31 30 29 30 30 31 31 31 30 30 30 30 30 30 30 30 30 30 31 31 32 32 32 32
35 34 32 32 31 31 31 33 36 37 37 38 37 36 35 34 34 34 32 31 31 31 31 32 33 32 32 32 33 33 33 32 32 31 31 32 32 33 34 34 34 34
39 39 38 37 35 34 34 36 40 40 38 38 39 37 36 36 35 35 34 33 33 32 33 34 34 34 34 34 35 35 35 35 34 34 34 34 34 34 35 35 36 36
39 40 42 42 39 37 37 38 41 42 42 40 39 38 38 38 37 36 36 35 35 35 35 35 35 35 35 35 36 36 36 37 36 36 37 37 37 37 36 37 37 38
38 39 41 42 41 40 41 41 41 42 42 40 40 42 43 41 39 37 37 37 38 37 37 36 36 37 37 36 36 37 38 38 39 39 39 39 39 39 39 39 39 40
38 39 39 40 40 40 42 43 44 42 39 37 40 44 47 45 41 38 38 39 39 39 38 38 38 39 38 37 37 38 39 40 40 41 41 41 41 41 42 42 42 42
39 39 39 38 38 38 40 43 44 45 43 40 40 43 47 49 45 39 38 39 39 39 40 40 40 40 39 39 39 40 41 41 42 42 43 43 43 44 44 44 44 44
40 41 40 39 38 38 39 40 42 43 44 42 41 41 46 49 47 42 39 39 39 41 42 40 39 39 39 40 41 41 42 43 43 44 45 45 45 45 45 45 45 45
40 40 40 40 40 39 38 39 39 40 40 39 39 42 46 48 47 43 39 39 41 42 41 39 38 39 40 41 42 43 44 45 45 46 46 46 46 46 47 47 47 47
41 41 41 40 40 39 38 38 38 38 37 37 38 41 44 45 43 41 39 40 41 41 40 39 38 39 40 42 43 44 45 46 47 47 47 47 47 47 47 48 48 48
42 43 43 41 40 39 37 37 37 37 38 37 36 38 40 41 41 40 40 40 40 39 38 38 39 40 41 42 44 45 46 47 47 48 48 48 48 48 48 48 49 49
40 42 43 42 40 37 35 33 34 38 40 39 37 37 39 41 40 39 39 39 38 38 38 39 40 41 42 43 45 46 47 48 48 48 48 48 48 48 48 49 49 49
39 39 41 41 39 35 32 31 34 40 43 42 41 39 39 40 39 37 37 37 37 38 39 40 41 42 43 44 45 46 47 48 48 48 48 48 48 48 48 48 49 49
39 38 39 39 37 34 31 29 32 37 40 40 40 40 38 37 36 34 34 35 36 37 39 39 40 41 42 43 43 44 45 45 46 47 48 48 48 49 49 49 49 50
Wind_Direction
264 264 264 266 268 273 281 291 299 304 304 305 306 305 303 300 298 295 292 290 288 286 284 282 280 279 278 278 279 278 278 277 276 275 273 272 272 272 272 272 271 271
267 264 262 264 268 272 275 282 294 301 303 305 305 304 302 300 298 295 292 289 287 285 284 283 281 279 277 276 276 277 278 278 278 278 277 276 275 275 274 273 273 273
269 267 265 265 267 268 268 275 287 295 298 302 303 303 302 300 298 295 291 288 286 285 284 283 281 279 277 275 275 275 276 277 278 279 280 280 281 281 280 278 277 276
269 268 265 262 262 263 266 271 280 288 293 297 299 300 301 301 300 298 295 292 288 286 284 283 281 280 278 277 276 275 273 273 274 275 276 278 279 281 282 283 283 282
264 264 261 258 257 260 264 270 276 280 286 292 295 296 298 299 300 300 299 297 294 290 286 284 283 282 282 282 280 279 277 277 276 275 275 276 277 278 279 281 283 284
259 260 259 257 255 255 261 267 271 274 279 286 290 292 295 296 298 299 299 299 296 293 289 286 283 282 282 283 283 283 284 284 283 281 279 278 278 278 278 279 280 280
254 259 259 257 256 255 259 263 266 269 274 279 283 287 290 292 294 296 297 297 296 293 288 284 282 281 281 280 281 282 283 284 284 283 282 281 280 280 280 280 280 280
244 251 255 256 257 257 258 261 264 267 269 274 279 282 284 286 288 290 292 294 295 293 288 283 280 279 278 278 279 281 282 282 282 282 281 280 280 280 281 282 283 283
241 243 247 251 254 256 258 260 262 264 266 270 274 276 277 279 281 284 288 291 293 293 290 286 282 280 279 279 280 281 282 282 282 282 281 281 282 282 283 283 283 283
241 242 245 249 251 254 256 258 261 262 264 266 268 270 272 273 275 278 283 288 291 292 292 291 288 284 282 283 283 284 285 284 284 283 282 282 283 284 285 285 285 284
241 242 244 247 249 251 253 255 258 260 261 262 264 266 267 268 271 274 279 284 288 290 292 293 292 289 287 287 287 287 288 288 287 285 283 283 284 285 285 285 285 285
243 245 246 247 248 249 249 251 253 256 258 259 260 262 264 265 268 271 276 280 285 288 291 293 292 292 291 290 289 289 289 288 287 286 284 284 285 285 285 285 285 284
245 244 246 247 248 247 247 248 249 251 253 256 257 258 260 263 266 269 273 277 280 284 288 290 292 292 292 292 292 291 290 289 288 287 286 285 286 287 286 285 285 285
252 248 245 244 246 247 247 248 251 251 249 251 253 255 257 260 264 268 273 276 278 281 284 286 289 291 293 293 292 292 291 291 290 289 287 286 286 286 286 286 286 286
256 255 251 246 244 245 247 250 256 261 259 253 250 251 254 258 263 268 272 275 276 277 280 284 288 291 292 291 291 292 293 293 292 290 288 286 286 286 285 285 285 285
255 256 256 253 249 248 251 252 257 265 270 266 258 252 252 255 260 265 269 272 273 275 279 283 287 288 289 290 291 292 292 292 290 289 287 286 286 286 285 284 284 284
252 252 254 255 255 255 258 260 261 265 271 273 265 255 251 251 254 259 265 269 271 274 277 281 283 285 287 289 290 291 290 289 288 287 286 286 286 286 285 284 283 283
253 253 253 255 256 257 259 262 264 267 271 273 268 259 252 250 252 256 261 265 269 272 274 277 280 283 286 288 288 288 288 287 286 286 286 287 287 286 285 284 283 283
254 256 257 258 260 260 260 261 263 267 270 274 273 264 253 250 251 254 258 262 266 269 271 274 278 282 285 286 286 287 287 286 286 286 287 287 286 286 285 284 284 284
256 257 258 260 262 262 263 263 264 266 269 272 272 263 251 247 249 252 256 259 263 266 269 273 277 280 282 284 285 285 286 286 286 286 286 286 286 286 286 285 285 284
259 258 258 258 260 262 265 266 266 267 269 271 269 258 247 245 248 251 253 257 260 263 267 272 275 278 280 281 283 284 285 285 286 286 286 286 286 287 286 286 286 285
262 262 261 260 260 262 263 265 267 268 268 269 267 257 250 251 253 253 254 256 259 262 266 271 274 276 278 280 281 282 283 283 285 286 287 287 287 287 287 287 287 287
262 262 263 264 264 265 265 265 265 266 266 266 264 260 259 258 255 253 254 256 259 263 267 272 275 277 278 280 280 282 282 283 285 286 287 287 288 288 289 289 289 289
263 262 262 263 265 266 266 265 263 263 263 261 258 257 258 256 251 250 253 255 259 264 269 272 275 277 278 280 281 283 284 285 286 287 288 289 289 290 290 290 289 289
264 263 261 261 262 263 264 265 262 258 256 256 253 251 251 249 247 248 252 255 261 266 270 273 275 277 279 281 282 283 284 286 287 288 289 290 291 291 290 290 290 289
264 263 260 259 259 260 261 262 256 245 238 238 241 242 242 242 243 247 252 257 262 267 270 274 277 279 282 283 284 285 286 288 289 290 291 292 292 292 292 291 292 291
Height
3113 3113 3113 3113 3114 3114 3114 3114 3114 3113 3113 3112 3112 3112 3111 3111 3111 3111 3111 3111 3111 3111 3111 3111 3112 3112 3112 3112 3112 3112 3112 3112 3112 3113 3113 3113 3114 3114 3115 3115 3115 3116
3112 3112 3112 3112 3112 3113 3113 3113 3113 3112 3112 3112 3111 3111 3111 3110 3110 3110 3110 3110 3110 3110 3110 3110 3110 3110 3111 3111 3110 3110 3110 3110 3110 3110 3110 3111 3111 3112 3112 3113 3113 3113
3110 3111 3111 3111 3111 3111 3112 3111 3111 3111 3111 3111 3110 3110 3110 3110 3110 3110 3110 3110 3110 3110 3109 3109 3109 3109 3109 3109 3109 3109 3109 3108 3108 3108 3108 3109 3109 3109 3110 3110 3110 3111
3109 3109 3110 3110 3110 3110 3110 3110 3110 3110 3110 3109 3109 3109 3109 3109 3108 3108 3108 3109 3109 3109 3108 3108 3108 3107 3107 3107 3107 3107 3107 3107 3107 3107 3107 3107 3107 3107 3107 3108 3108 3108
3107 3107 3108 3108 3108 3108 3108 3108 3109 3109 3108 3108 3107 3107 3107 3107 3107 3107 3107 3107 3107 3108 3107 3107 3106 3106 3106 3106 3105 3105 3105 3105 3106 3106 3106 3106 3106 3106 3106 3106 3106 3106
3105 3105 3106 3106 3107 3106 3106 3107 3107 3107 3107 3107 3106 3105 3105 3105 3105 3105 3105 3105 3106 3106 3106 3105 3105 3104 3104 3104 3104 3103 3103 3103 3103 3104 3104 3104 3104 3104 3104 3104 3104 3104
3103 3103 3104 3104 3104 3104 3104 3105 3105 3105 3105 3105 3104 3104 3103 3103 3103 3103 3103 3103 3103 3104 3104 3103 3103 3103 3103 3102 3102 3102 3101 3101 3101 3101 3101 3101 3102 3101 3101 3102 3102 3101
3100 3100 3101 3101 3101 3102 3102 3102 3103 3103 3103 3103 3103 3102 3102 3101 3101 3100 3100 3100 3101 3101 3101 3101 3100 3100 3100 3100 3100 3100 3099 3099 3099 3099 3099 3099 3099 3099 3099 3099 3099 3098
3097 3097 3097 3098 3098 3099 3099 3100 3100 3101 3101 3101 3100 3100 3099 3099 3098 3098 3097 3098 3098 3098 3098 3097 3097 3097 3097 3097 3097 3097 3097 3097 3096 3096 3096 3096 3096 3096 3096 3095 3095 3095
3094 3095 3095 3095 3095 3096 3096 3097 3097 3097 3097 3097 3097 3097 3097 3096 3095 3095 3095 3095 3095 3095 3094 3094 3094 3093 3093 3093 3094 3094 3094 3094 3093 3093 3093 3092 3092 3092 3092 3091 3091 3091
3091 3091 3091 3092 3092 3092 3093 3093 3093 3094 3094 3094 3094 3093 3093 3093 3092 3092 3092 3092 3092 3091 3091 3091 3090 3090 3090 3090 3090 3090 3090 3090 3090 3090 3089 3089 3088 3088 3087 3087 3087 3087
3087 3088 3088 3089 3089 3089 3089 3089 3089 3089 3089 3089 3089 3089 3089 3089 3089 3089 3089 3089 3089 3088 3087 3087 3086 3086 3086 3086 3086 3086 3086 3086 3086 3086 3085 3085 3085 3084 3084 3083 3083 3082
3082 3083 3084 3085 3085 3085 3085 3085 3085 3085 3085 3085 3085 3085 3085 3085 3085 3085 3086 3086 3085 3085 3084 3083 3083 3083 3083 3082 3082 3082 3082 3082 3082 3081 3081 3081 3080 3080 3079 3079 3078 3078
3078 3078 3079 3080 3080 3081 3081 3080 3079 3079 3080 3080 3080 3080 3081 3081 3082 3082 3083 3083 3082 3081 3081 3080 3079 3079 3079 3079 3078 3078 3078 3078 3078 3077 3077 3077 3076 3076 3075 3074 3074 3073
3074 3074 3074 3074 3076 3077 3076 3076 3075 3075 3076 3077 3077 3077 3077 3078 3078 3079 3079 3079 3078 3078 3077 3076 3076 3076 3075 3075 3074 3074 3074 3073 3073 3073 3072 3072 3071 3071 3071 3070 3069 3068
3069 3069 3069 3070 3071 3072 3072 3072 3072 3071 3072 3074 3075 3075 3074 3074 3075 3075 3075 3075 3074 3073 3073 3072 3072 3072 3071 3070 3070 3070 3069 3068 3068 3067 3067 3066 3066 3066 3066 3065 3064 3064
3063 3064 3065 3066 3067 3068 3068 3068 3068 3068 3068 3069 3070 3070 3069 3069 3069 3070 3071 3070 3070 3069 3069 3069 3068 3068 3067 3067 3066 3065 3064 3063 3062 3062 3061 3061 3060 3059 3059 3059 3059 3058
3058 3058 3059 3060 3061 3063 3063 3063 3062 3063 3063 3063 3063 3064 3064 3064 3064 3065 3066 3065 3065 3065 3065 3065 3064 3064 3063 3063 3062 3061 3060 3058 3057 3056 3056 3055 3054 3054 3053 3053 3052 3052
3053 3053 3054 3055 3056 3056 3057 3057 3057 3057 3058 3058 3057 3057 3058 3058 3059 3060 3060 3060 3061 3061 3060 3060 3060 3060 3060 3059 3058 3056 3055 3054 3053 3051 3050 3049 3049 3048 3047 3046 3045 3045
3047 3048 3049 3050 3050 3050 3051 3051 3052 3052 3052 3052 3052 3051 3051 3052 3054 3055 3055 3056 3056 3056 3056 3056 3056 3056 3055 3054 3053 3052 3051 3049 3048 3046 3045 3044 3043 3042 3041 3040 3039 3038
3041 3042 3043 3044 3044 3045 3046 3046 3046 3046 3046 3046 3046 3046 3046 3046 3048 3049 3050 3051 3051 3051 3052 3052 3051 3051 3050 3049 3048 3047 3045 3044 3043 3041 3040 3039 3037 3036 3034 3033 3032 3031
3035 3036 3037 3038 3039 3040 3040 3040 3040 3041 3041 3041 3042 3041 3042 3043 3044 3045 3046 3046 3047 3047 3048 3047 3046 3045 3044 3043 3042 3041 3039 3038 3037 3036 3034 3033 3032 3030 3029 3027 3025 3024
3030 3030 3031 3032 3033 3034 3035 3035 3036 3036 3037 3037 3038 3039 3039 3040 3040 3041 3041 3042 3043 3043 3043 3042 3041 3040 3039 3038 3037 3035 3033 3032 3031 3030 3029 3027 3025 3024 3022 3020 3019 3017
3024 3025 3026 3026 3027 3028 3030 3031 3031 3032 3032 3033 3034 3035 3035 3035 3035 3036 3037 3038 3039 3039 3038 3037 3036 3035 3034 3032 3031 3029 3028 3027 3025 3023 3022 3020 3019 3017 3015 3014 3012 3010
3018 3019 3020 3021 3022 3024 3025 3027 3027 3026 3026 3028 3029 3029 3030 3031 3031 3032 3033 3034 3034 3034 3033 3032 3031 3030 3029 3027 3026 3024 3023 3021 3019 3017 3015 3013 3011 3010 3008 3006 3004 3002
3012 3013 3014 3015 3017 3019 3021 3023 3024 3022 3020 3021 3023 3025 3026 3027 3028 3028 3029 3029 3029 3029 3028 3028 3027 3025 3024 3023 3021 3019 3017 3015 3013 3010 3008 3006 3004 3002 3000 2998 2996 2994